Location: Bzov�
(49.5572°N, 14.8411°E)
Time: 21:31:00
(UTC+00:00)

Daily predictions for brighter satellites

Satellite Brightness Start Highest point End
(mag) Time Altitude Azimuth Time Altitude Azimuth Time Altitude Azimuth
OBJECT-B 3.9 19:53:47 10° WSW 19:54:54 11° W 19:56:02 10° WNW
MetOp-B 4.3 19:51:15 10° SSE 19:56:36 81° WSW 20:02:00 10° NNW
Cosmos 1452 Rocket 4.0 19:52:33 10° S 19:57:30 43° ESE 20:02:29 10° NE
SL-23 DEB 4.1 19:58:06 10° WSW 20:01:38 82° NNW 20:07:13 10° ENE
SPOT 1/Viking Rocket 3.6 19:56:55 10° SSE 20:02:04 85° WSW 20:07:15 10° NNW
Cosmos 2056 Rocket 3.9 19:57:26 10° SSW 20:02:37 69° WNW 20:07:56 10° NNE
ATLAS CENTAUR R/B 3.2 19:59:17 10° NNW 20:02:52 26° NE 20:06:36 10° E
Cosmos 2219 Rocket 4.1 20:01:13 10° ESE 20:03:06 12° E 20:05:00 10° ENE
Cosmos 1850 Rocket 4.2 20:00:42 10° NNW 20:06:01 66° ENE 20:11:16 10° SSE
Cosmos 1727 Rocket 4.1 20:03:09 10° S 20:09:26 71° E 20:15:41 10° NNE
SPOT 5 3.3 20:05:04 10° SSE 20:10:08 58° ENE 20:15:00 10° N
Okean 1 Rocket 3.8 20:07:12 10° NNW 20:11:27 52° W 20:15:41 10° S
Cosmos 292 Rocket 3.8 20:08:46 10° SSW 20:13:36 75° ESE 20:18:25 10° NNE
NOSS 3-2 (C) 3.4 20:08:11 10° SW 20:13:51 80° SE 20:20:28 10° NE
NOSS 3-2 (A) 3.8 20:08:23 10° SW 20:14:05 70° NW 20:20:47 10° NE
Cosmos 1455 Rocket 3.3 20:11:18 10° N 20:15:44 60° ENE 20:20:03 11° SSE
Cosmos 2285 Rocket 4.1 20:11:10 10° SSW 20:17:37 88° WNW 20:24:06 10° NNE
Geosat 4.1 20:12:45 10° SSE 20:17:46 76° WSW 20:22:50 10° NNW
Cosmos 1626 3.3 20:15:41 11° SE 20:18:35 26° E 20:21:42 10° NNE
SL-16 R/B 2.2 20:14:30 10° SSW 20:20:09 78° ESE 20:25:52 10° NNE
KORONAS-FOTON 4.1 20:16:34 10° S 20:20:14 48° E 20:23:55 10° NNE
Spot 2 Rocket 3.6 20:15:34 10° SSE 20:20:37 82° WSW 20:25:45 10° NNW
Cosmos 1420 Rocket 4.3 20:17:10 10° SSW 20:22:20 71° WNW 20:27:35 10° NNE
Cosmos 1802 Rocket 4.3 20:16:20 10° N 20:22:28 55° ENE 20:28:20 12° SSE
Meteor 2-20 Rocket 4.5 20:16:49 10° S 20:22:55 80° E 20:29:03 10° NNE
Cosmos 2360 Rocket 2.7 20:18:07 10° S 20:23:21 40° ESE 20:28:35 10° NE
Lacrosse 5 2.6 20:18:58 10° WNW 20:23:46 44° SW 20:28:12 12° SSE
Cosmos 2322 Rocket 2.2 20:18:07 10° SSW 20:23:46 67° ESE 20:29:27 10° NNE
ATLAS 3B R/B 3.8 20:18:59 10° SSE 20:23:49 22° ESE 20:28:45 10° ENE
Cosmos 1470 4.3 20:21:19 10° NNW 20:24:55 33° W 20:28:30 10° SSW
Meteor 1-16 Rocket 4.2 20:21:02 10° N 20:26:37 78° ENE 20:31:47 11° SSE
Terra 2.1 20:22:54 12° SSE 20:27:17 58° ENE 20:31:58 10° N
Genesis I 3.2 20:25:49 10° SW 20:29:40 88° WNW 20:33:39 10° NE
ERS-1 Rocket 3.0 20:24:47 10° SSE 20:29:44 84° ENE 20:34:48 10° NNW
Cosmos 1315 Rocket 4.3 20:26:15 10° NNW 20:30:03 36° W 20:33:49 10° SSW
FALCON 9 DEB 4.2 20:28:51 10° SSW 20:31:37 23° SE 20:34:24 10° E
COSMOS 2428 4.3 20:31:38 12° SE 20:34:41 18° E 20:38:21 10° ENE
Cosmos 1741 Rocket 4.1 20:32:13 10° NNW 20:37:30 76° WSW 20:42:13 13° SSE
Cosmos 2237 4.2 20:34:17 10° SSW 20:39:53 65° ESE 20:45:32 10° NNE
DNEPR-1 R/B 4.3 20:37:52 10° NNW 20:41:57 44° NE 20:45:56 11° ESE
USA 215 3.8 20:36:38 10° ENE 20:42:32 35° SE 20:48:23 10° SSW
Cosmos 1980 Rocket 4.4 20:38:34 10° WSW 20:43:25 29° NW 20:48:16 10° NNE
Cosmos 2278 Rocket 3.9 20:40:20 10° NNW 20:44:58 25° NE 20:49:33 10° E
Cosmos 1674 2.6 20:41:33 10° S 20:45:17 85° W 20:49:01 10° N
Cosmos 1459 Rocket 4.0 20:39:29 10° N 20:45:35 88° W 20:51:15 12° S
Resurs 01 Rocket 4.0 20:43:44 10° SW 20:46:47 18° W 20:49:52 10° NW
Cosmos 1300 3.5 20:45:41 10° N 20:49:17 38° ENE 20:51:46 17° SE
USA 238 DEB 4.3 20:42:51 10° WSW 20:49:22 62° NW 20:56:19 10° NE
USA 238 4.3 20:42:57 10° WSW 20:49:28 62° NW 20:56:25 10° NE
Meteor 2-5 Rocket 4.4 20:48:06 15° SSE 20:52:07 37° E 20:57:14 10° NNE
Cosmos 1000 Rocket 4.5 20:47:23 10° S 20:53:33 87° E 20:59:43 10° N
Cosmos 2061 Rocket 4.1 20:48:26 10° N 20:54:54 73° E 21:00:14 16° SSE
Cosmos 1844 Rocket 2.8 20:54:20 10° NNW 21:00:00 73° WSW 21:04:26 17° SSE
Cosmos 389 Rocket 4.4 20:58:33 10° NNE 21:01:02 18° ENE 21:02:59 12° ESE
Cosmos 1025 Rocket 3.0 20:57:16 12° S 21:01:15 83° E 21:05:39 10° NNE
Lacrosse 5 rocket 1.9 20:59:58 17° S 21:01:56 27° SE 21:05:02 10° ENE
Cosmos 1908 4.0 21:00:57 10° NNW 21:04:43 47° W 21:07:53 14° SSW
CENTAUR R/B 3.5 20:58:46 10° WSW 21:04:50 55° NW 21:12:08 10° NE
Cosmos 1864 Rocket 4.5 20:59:34 10° N 21:05:50 82° E 21:10:46 17° SSE
Cosmos 1975 Rocket 3.9 21:03:04 10° SSW 21:07:16 48° WNW 21:11:33 10° N
SL-8 R/B 3.8 21:04:43 10° W 21:09:25 56° SSW 21:13:03 16° SE
Cosmos 2228 4.1 21:05:27 10° N 21:09:28 33° ENE 21:12:12 17° SE
Cosmos 2263 Rocket 4.5 21:08:33 10° WNW 21:11:36 15° W 21:14:38 10° SW
Cosmos 1340 2.6 21:11:35 20° S 21:14:06 69° E 21:17:52 10° NNE
Cosmos 2123 Rocket 4.0 21:08:51 13° S 21:14:33 81° E 21:20:55 10° NNE
Cosmos 1953 3.7 21:12:50 10° NNW 21:16:31 33° W 21:20:00 11° SSW
Cosmos 2333 4.3 21:12:00 12° S 21:17:17 59° ESE 21:22:54 10° NE
USA 267 3.5 21:11:14 10° ESE 21:17:46 74° NNE 21:24:17 10° WNW
Cosmos 1110 Rocket 4.0 21:13:40 10° SSW 21:18:50 83° WNW 21:24:06 10° NNE
Cosmos 1461 3.7 21:19:43 10° NW 21:23:41 39° WSW 21:25:52 21° S
GEOS 3 Rocket 3.7 21:19:40 18° SE 21:23:43 86° SW 21:29:06 10° NW
Cosmos 2233 Rocket 4.0 21:18:13 10° N 21:24:23 73° E 21:28:46 20° SSE
Cosmos 2333 Rocket 2.3 21:21:56 15° S 21:26:39 58° ESE 21:32:16 10° NE
SL-14 R/B 3.4 21:26:32 17° SSW 21:29:32 76° W 21:33:36 10° N
Cosmos 968 Rocket 3.6 21:25:07 10° NNW 21:30:14 69° ENE 21:33:36 22° SE
Cosmos 405 3.4 21:30:59 10° NNW 21:34:22 52° W 21:36:09 24° SSW
Cosmos 1726 Rocket 4.3 21:35:29 10° N 21:39:46 43° ENE 21:42:13 22° SE
Cosmos 1844 4.4 21:35:07 10° NW 21:40:22 44° WSW 21:43:57 19° S
ATLAS CENTAUR R/B 1.6 21:37:48 10° NW 21:42:05 68° SW 21:44:31 26° SSE
Meteor 1-24 Rocket 3.6 21:40:46 21° S 21:44:26 78° E 21:49:55 10° NNE
Cosmos 2219 Rocket 2.2 21:41:31 17° SSW 21:45:59 69° ESE 21:51:39 10° NNE
ALOS 2 3.2 21:50:57 23° SE 21:53:24 47° ENE 21:57:38 10° N
Cosmos 1606 Rocket 3.6 21:48:55 10° N 21:53:25 73° E 21:55:43 28° SSE
Cosmos 1626 4.1 21:50:37 10° SW 21:53:44 25° WNW 21:56:53 10° NNW
Cosmos 1892 Rocket 4.3 21:55:04 26° SE 21:56:58 39° E 22:01:07 10° NNE
Meteor 2-10 Rocket 3.4 21:53:52 10° NNW 21:59:02 80° W 22:01:54 26° S
Cosmos 2237 Rocket 3.2 21:57:16 22° SE 21:59:33 29° ESE 22:04:21 10° NE
SJ 16-02 3.9 21:58:43 10° NNE 22:01:06 14° NE 22:03:29 10° E
BREEZE-M DEB (TANK) 3.5 22:00:32 10° WSW 22:03:49 86° SSE 22:14:06 10° E
SL-16 R/B 4.4 22:00:17 10° W 22:04:55 25° NW 22:09:34 10° NNE
Terra 3.8 22:01:54 10° SW 22:05:24 20° W 22:08:56 10° NW
BREEZE-M DEB (TANK) 3.5 21:57:37 10° SW 22:06:10 37° SSE 22:09:17 10° E
Cosmos 1464 Rocket 4.3 22:00:20 10° N 22:06:37 60° ENE 22:10:43 23° SSE
Iridium 2 3.7 22:05:48 35° SSE 22:07:14 67° E 22:10:59 10° N
Cosmos 2360 Rocket 3.4 22:02:02 10° WSW 22:07:21 41° NW 22:12:42 10° NNE
FALCON 9 DEB 3.1 22:04:47 10° WSW 22:08:13 82° NNW 22:11:38 10° ENE
Cosmos 2322 Rocket 4.2 22:03:26 10° WSW 22:08:18 28° NW 22:13:14 10° NNE
Cosmos 1503 Rocket 4.2 22:05:48 10° NNW 22:11:12 70° ENE 22:14:30 24° SE
ATLAS 3B R/B 2.6 22:07:04 10° SW 22:13:38 89° NW 22:20:30 10° NE
CZ-3B R/B 4.3 21:48:38 10° WSW 22:17:21 81° NNW 22:22:49 10° ENE
Cosmos 1455 2.1 22:14:13 10° N 22:18:05 79° E 22:19:32 36° SSE
COSMOS 2428 2.7 22:13:36 17° SSW 22:18:12 86° WNW 22:23:59 10° NNE
Cosmos 1867 3.6 22:14:47 10° NW 22:20:17 73° SW 22:23:22 26° SSE
Cosmos 2322 4.2 22:16:52 10° SW 22:22:27 60° WNW 22:28:04 10° NNE
BREEZE-M DEB (TANK) 2.6 22:19:25 10° WSW 22:22:36 81° SSE 22:31:34 10° E
ATLAS CENTAUR R/B 3.8 22:21:00 25° SSE 22:23:42 36° ESE 22:34:29 10° NE
FALCON 9 DEB 3.6 22:24:45 36° ESE 22:24:45 36° ESE 22:27:08 10° ENE
Thor Agena Rocket 4.5 22:20:29 10° NNE 22:25:18 35° E 22:27:41 24° SE
Cosmos 1607 4.1 22:19:24 10° NW 22:25:54 80° NE 22:30:46 18° SE
USA 215 3.3 22:19:26 10° ENE 22:26:01 88° NW 22:32:35 10° WSW
Cosmos 1346 Rocket 3.3 22:27:17 25° SW 22:29:23 56° WNW 22:33:21 10° N
Cosmos 2278 Rocket 2.2 22:24:00 10° NNW 22:29:42 80° WSW 22:32:55 27° SSE
Cosmos 389 Rocket 3.6 22:32:41 10° NNW 22:35:46 32° W 22:36:46 26° SW
SL-4 R/B 3.6 22:37:34 18° ESE 22:37:34 18° ESE 22:39:10 10° E
Meteor 1-4 Rocket 3.6 22:34:15 10° N 22:37:31 35° ENE 22:38:51 25° ESE
Cosmos 2034 Rocket 4.1 22:33:09 10° N 22:39:22 72° ENE 22:43:07 25° SSE
Lacrosse 5 rocket 1.7 22:37:17 10° WSW 22:40:50 55° NNW 22:44:22 10° NE
Uosat 12 SS-18 rocket 4.3 22:41:41 18° SW 22:45:00 77° NW 22:50:13 10° NE
Okean 1-7 Rocket 3.6 22:44:49 33° S 22:46:45 73° E 22:51:13 10° NNE
GENESIS II 4.5 22:45:53 39° SSE 22:46:48 48° ESE 22:50:35 10° NE
Cosmos 2228 4.5 22:43:08 10° NNW 22:46:55 28° W 22:49:02 19° SW
FALCON 9 DEB 2.7 22:47:10 43° SW 22:48:02 78° SSE 22:51:08 10° ENE
FALCON 9 DEB 2.7 22:48:39 58° SSW 22:49:02 66° SSE 22:52:10 10° ENE
Meteor 2-1 Rocket 4.2 22:47:09 10° NNW 22:52:40 73° W 22:55:36 28° S
FALCON 9 DEB 2.7 22:55:40 37° WSW 22:56:44 85° SSE 22:59:52 10° ENE
USA 267 3.6 22:57:24 24° SSE 23:01:02 46° SW 23:07:18 10° WNW
Cosmos 1703 3.2 23:00:14 37° SSW 23:01:43 81° WNW 23:05:41 10° N
SL-16 R/B 4.5 22:58:07 10° ESE 23:02:51 24° NE 23:07:33 10° N
Cosmos 1777 Rocket 4.0 22:58:40 10° NNW 23:03:59 81° ENE 23:07:10 25° SSE
Tsikada Rocket 4.1 23:01:05 26° SSE 23:04:39 65° E 23:10:46 10° NNE
Cosmos 2058 Rocket 3.7 23:00:28 10° NNW 23:04:44 45° W 23:06:34 29° SSW
Cosmos-2242 4.2 23:02:02 10° N 23:06:06 36° ENE 23:08:47 18° SE
Cosmos 1354 Rocket 4.4 23:01:15 10° NNW 23:06:26 52° WSW 23:08:54 29° SSW
Cosmos 1328 3.7 23:06:47 39° S 23:08:08 75° E 23:12:02 10° NNE
Cosmos 1441 Rocket 3.2 23:07:22 37° SSW 23:08:49 75° WNW 23:12:40 10° N
Cosmos 1980 3.7 23:05:28 24° SSW 23:09:05 85° WNW 23:14:50 10° NNE
Cosmos 1812 Rocket 3.8 23:04:46 10° N 23:09:05 62° ENE 23:11:12 29° SSE
Cosmos 2333 Rocket 3.8 23:06:10 10° WSW 23:11:17 32° NW 23:16:22 10° NNE
GP-B 3.1 23:08:59 10° N 23:13:27 74° E 23:15:26 32° S
Aureole 3 3.7 23:13:43 10° N 23:17:06 53° ENE 23:18:57 28° SE
Cosmos 1943 Rocket 2.7 23:13:19 10° NNW 23:18:45 57° NE 23:23:45 12° SE
ATLAS CENTAUR R/B 3.9 23:19:42 10° WSW 23:20:16 10° WSW 23:20:38 10° WSW
Cosmos 1184 Rocket 4.4 23:27:00 20° WSW 23:28:14 26° WNW 23:31:03 10° N
ALOS 2 4.3 23:28:20 17° WSW 23:29:59 21° W 23:33:22 10° NW
Cosmos 2219 Rocket 4.0 23:25:39 10° WSW 23:30:27 27° NW 23:35:18 10° NNE
EO 1 Del DPAF 3.3 23:30:09 10° NNE 23:33:51 65° ESE 23:35:10 37° S
SL-16 R/B 2.4 23:34:20 27° S 23:37:21 59° ESE 23:42:55 10° NE
Resurs 1-4 Rocket 3.8 23:34:08 10° NE 23:38:18 23° E 23:41:58 12° SE
SJ 16-02 1.3 23:35:58 10° NNW 23:40:23 88° ENE 23:42:45 27° SSE
Cosmos 1825 Rocket 4.2 23:38:56 26° SSE 23:41:09 49° E 23:45:29 10° NNE
CZ-2D R/B 3.7 23:39:04 10° NE 23:43:15 24° E 23:46:50 12° SE
Cosmos 2237 Rocket 2.7 23:39:03 17° SW 23:43:20 54° NW 23:48:52 10° NNE
Cosmos 724 4.3 23:38:19 10° NW 23:44:30 73° SW 23:49:11 18° SSE
FALCON 9 DEB 4.3 23:42:03 10° WNW 23:45:21 44° N 23:48:38 10° ENE
OPS 6432 4.3 23:44:53 10° NW 23:47:52 76° NE 23:50:13 19° SE
PSLV R/B 3.9 23:47:54 10° N 23:52:07 58° WNW 23:54:21 26° SW
Cosmos 2369 Rocket 2.8 23:47:53 10° NNW 23:53:33 57° NE 23:59:10 10° SE
Cosmos 1825 3.8 23:52:24 17° SE 23:54:24 27° E 23:57:37 10° NNE
